Location: Newark
(31.0436°N, 112.2008°E)
Time: 11:01:13
(UTC+00:00)

LightSail 2 - Pass Details

Date: 24 January 2020
Orbit: 699 x 722 km, 24.0° (Epoch: 22 February)

Event Time Altitude Azimuth Distance (km) Brightness Sun altitude
Rises 11:34:44 0° 260° (W) 3,081 10.0 -20.5°
Reaches altitude 10° 11:37:20 10° 251° (WSW) 2,167 8.8 -21.1°
Maximum altitude 11:41:55 33° 188° (S) 1,168 6.4 -22.0°
Enters shadow 11:43:48 26° 148° (SSE) 1,392 6.4 -22.4°
